When you browse on this site, cookies collect data to enhance your experience and personalize the content and advertising you see.
Visit our Privacy Policy to learn more. By continuing to use the site, you agree to this use of cookies and data.
  • In Latvia
  • List of Countries
  • For 7 days
  • Water Temperature
  • Satellite Maps
  • Weather Map
  • Weather Widgets
  • user-avatar
    Login

    Hourly Weather Ghadamis

    Today, 19 March, Tuesday

    Time Temperature Precipitation Wind Pressure Humidity
    00:00 +22°C° 0 mm 3 mps 729 mmHg 17%
    01:00 +23°C° 0 mm 2 mps 728 mmHg 18%
    02:00 +21°C° 0 mm 2 mps 728 mmHg 18%
    03:00 +21°C° 0 mm 2 mps 727 mmHg 19%
    04:00 +20°C° 0 mm 2 mps 727 mmHg 19%
    05:00 +20°C° 0 mm 2 mps 727 mmHg 21%
    06:00 +19°C° 0 mm 3 mps 727 mmHg 23%
    07:00 +18°C° 0 mm 4 mps 727 mmHg 28%
    08:00 +19°C° 0 mm 4 mps 728 mmHg 30%
    09:00 +20°C° 0 mm 4 mps 728 mmHg 33%
    10:00 +21°C° 0 mm 4 mps 728 mmHg 36%
    11:00 +22°C° 0 mm 5 mps 728 mmHg 33%
    12:00 +23°C° 0 mm 5 mps 728 mmHg 30%
    13:00 +25°C° 0 mm 5 mps 728 mmHg 27%
    14:00 +26°C° 0 mm 5 mps 728 mmHg 26%
    15:00 +26°C° 0 mm 6 mps 728 mmHg 25%
    16:00 +26°C° 0 mm 6 mps 728 mmHg 24%
    17:00 +24°C° 0 mm 6 mps 728 mmHg 29%
    18:00 +22°C° 0 mm 6 mps 729 mmHg 34%
    19:00 +21°C° 0 mm 6 mps 729 mmHg 39%
    20:00 +20°C° 0 mm 6 mps 729 mmHg 44%
    21:00 +19°C° 0 mm 6 mps 730 mmHg 49%
    22:00 +16°C° 0 mm 6 mps 730 mmHg 54%
    23:00 +16°C° 0 mm 5 mps 730 mmHg 57%

    Tomorrow, 20 March, Wednesday

    Time Temperature Precipitation Wind Pressure Humidity
    00:00 +15°C° 0 mm 5 mps 730 mmHg 60%
    01:00 +14°C° 0 mm 4 mps 730 mmHg 63%
    02:00 +14°C° 0 mm 3 mps 730 mmHg 65%
    03:00 +13°C° 0 mm 3 mps 730 mmHg 68%
    04:00 +14°C° 0 mm 2 mps 729 mmHg 70%
    05:00 +13°C° 0 mm 2 mps 729 mmHg 72%
    06:00 +13°C° 0 mm 2 mps 730 mmHg 73%
    07:00 +12°C° 0 mm 3 mps 730 mmHg 75%
    08:00 +13°C° 0 mm 3 mps 730 mmHg 70%
    09:00 +13°C° 0 mm 3 mps 731 mmHg 65%
    10:00 +14°C° 0 mm 3 mps 731 mmHg 60%
    11:00 +17°C° 0 mm 3 mps 731 mmHg 53%
    12:00 +18°C° 0 mm 3 mps 731 mmHg 47%
    13:00 +19°C° 0 mm 3 mps 731 mmHg 41%
    14:00 +20°C° 0 mm 3 mps 731 mmHg 38%
    15:00 +21°C° 0 mm 4 mps 730 mmHg 36%
    16:00 +21°C° 0 mm 4 mps 730 mmHg 34%
    17:00 +21°C° 0 mm 4 mps 730 mmHg 35%
    18:00 +20°C° 0 mm 4 mps 730 mmHg 36%
    19:00 +19°C° 0 mm 4 mps 730 mmHg 38%
    20:00 +19°C° 0 mm 4 mps 731 mmHg 40%
    21:00 +17°C° 0 mm 5 mps 732 mmHg 42%
    22:00 +16°C° 0 mm 5 mps 732 mmHg 44%
    23:00 +16°C° 0 mm 5 mps 732 mmHg 46%

    Day after tomorrow, 21 March, Thursday

    Time Temperature Precipitation Wind Pressure Humidity
    00:00 +15°C° 0 mm 5 mps 732 mmHg 48%
    01:00 +14°C° 0 mm 5 mps 732 mmHg 50%
    02:00 +13°C° 0 mm 5 mps 732 mmHg 51%
    03:00 +13°C° 0 mm 4 mps 731 mmHg 52%
    04:00 +13°C° 0 mm 4 mps 731 mmHg 53%
    05:00 +12°C° 0 mm 3 mps 731 mmHg 54%
    06:00 +13°C° 0 mm 2 mps 732 mmHg 56%
    07:00 +13°C° 0 mm 1 mps 732 mmHg 57%
    08:00 +13°C° 0 mm 1 mps 732 mmHg 54%
    09:00 +14°C° 0 mm 1 mps 733 mmHg 51%
    10:00 +15°C° 0 mm 1 mps 733 mmHg 48%
    11:00 +16°C° 0 mm 2 mps 733 mmHg 43%
    12:00 +17°C° 0 mm 3 mps 732 mmHg 38%
    13:00 +18°C° 0 mm 4 mps 732 mmHg 33%
    14:00 +18°C° 0 mm 4 mps 731 mmHg 31%
    15:00 +18°C° 0 mm 4 mps 731 mmHg 28%
    16:00 +18°C° 0 mm 4 mps 730 mmHg 25%
    17:00 +18°C° 0 mm 4 mps 731 mmHg 25%
    18:00 +18°C° 0 mm 3 mps 731 mmHg 25%
    19:00 +18°C° 0 mm 2 mps 731 mmHg 25%
    20:00 +17°C° 0 mm 2 mps 731 mmHg 26%
    21:00 +17°C° 0 mm 2 mps 732 mmHg 26%
    22:00 +16°C° 0 mm 2 mps 732 mmHg 27%
    23:00 +16°C° 0 mm 2 mps 732 mmHg 28%

    22 March, Friday

    Time Temperature Precipitation Wind Pressure Humidity
    00:00 +15°C° 0 mm 2 mps 732 mmHg 29%
    01:00 +15°C° 0 mm 2 mps 732 mmHg 30%
    02:00 +14°C° 0 mm 2 mps 732 mmHg 31%
    03:00 +14°C° 0 mm 2 mps 731 mmHg 32%
    04:00 +13°C° 0 mm 1 mps 731 mmHg 33%
    05:00 +13°C° 0 mm 1 mps 732 mmHg 33%
    06:00 +13°C° 0 mm 2 mps 732 mmHg 32%
    07:00 +13°C° 0 mm 2 mps 732 mmHg 32%
    08:00 +14°C° 0 mm 3 mps 733 mmHg 29%
    09:00 +15°C° 0 mm 4 mps 733 mmHg 25%
    10:00 +18°C° 0 mm 4 mps 733 mmHg 21%
    11:00 +19°C° 0 mm 5 mps 733 mmHg 22%
    12:00 +20°C° 0 mm 6 mps 733 mmHg 22%
    13:00 +21°C° 0 mm 7 mps 732 mmHg 22%
    14:00 +21°C° 0 mm 7 mps 732 mmHg 25%
    15:00 +21°C° 0 mm 7 mps 732 mmHg 28%
    16:00 +21°C° 0 mm 7 mps 732 mmHg 31%
    17:00 +21°C° 0 mm 6 mps 732 mmHg 33%
    18:00 +20°C° 0 mm 5 mps 732 mmHg 36%
    19:00 +19°C° 0 mm 4 mps 732 mmHg 38%
    20:00 +19°C° 0 mm 3 mps 733 mmHg 40%
    21:00 +18°C° 0 mm 2 mps 734 mmHg 42%
    22:00 +18°C° 0 mm 1 mps 734 mmHg 44%
    23:00 +18°C° 0 mm 1 mps 734 mmHg 45%

    23 March, Saturday

    Time Temperature Precipitation Wind Pressure Humidity
    00:00 +16°C° 0 mm 1 mps 734 mmHg 47%
    01:00 +16°C° 0 mm 1 mps 734 mmHg 49%
    02:00 +16°C° 0 mm 1 mps 734 mmHg 51%
    03:00 +15°C° 0 mm 1 mps 734 mmHg 53%
    04:00 +15°C° 0 mm 1 mps 734 mmHg 55%
    05:00 +14°C° 0 mm 1 mps 734 mmHg 55%
    06:00 +14°C° 0 mm 1 mps 734 mmHg 56%
    07:00 +14°C° 0 mm 1 mps 735 mmHg 57%
    08:00 +15°C° 0 mm 1 mps 735 mmHg 51%
    09:00 +17°C° 0 mm 2 mps 736 mmHg 45%
    10:00 +18°C° 0 mm 2 mps 736 mmHg 39%
    11:00 +19°C° 0 mm 2 mps 736 mmHg 35%
    12:00 +20°C° 0 mm 2 mps 736 mmHg 31%
    13:00 +21°C° 0 mm 2 mps 735 mmHg 27%
    14:00 +23°C° 0 mm 2 mps 735 mmHg 25%
    15:00 +23°C° 0 mm 2 mps 734 mmHg 23%
    16:00 +24°C° 0 mm 3 mps 734 mmHg 22%
    17:00 +22°C° 0 mm 3 mps 734 mmHg 23%
    18:00 +22°C° 0 mm 3 mps 734 mmHg 24%
    19:00 +21°C° 0 mm 3 mps 734 mmHg 24%
    20:00 +21°C° 0 mm 3 mps 735 mmHg 26%
    21:00 +20°C° 0 mm 2 mps 735 mmHg 27%
    22:00 +20°C° 0 mm 2 mps 736 mmHg 29%
    23:00 +19°C° 0 mm 2 mps 735 mmHg 30%

    24 March, Sunday

    Time Temperature Precipitation Wind Pressure Humidity
    00:00 +19°C° 0 mm 3 mps 735 mmHg 32%
    01:00 +18°C° 0 mm 3 mps 735 mmHg 34%
    02:00 +18°C° 0 mm 3 mps 735 mmHg 37%
    03:00 +18°C° 0 mm 4 mps 734 mmHg 40%
    04:00 +16°C° 0 mm 5 mps 734 mmHg 43%
    05:00 +17°C° 0 mm 4 mps 734 mmHg 44%
    06:00 +17°C° 0 mm 4 mps 734 mmHg 45%
    07:00 +16°C° 0 mm 3 mps 734 mmHg 46%
    08:00 +18°C° 0 mm 4 mps 734 mmHg 41%
    09:00 +19°C° 0 mm 4 mps 735 mmHg 35%
    10:00 +21°C° 0 mm 5 mps 735 mmHg 30%
    11:00 +23°C° 0 mm 5 mps 734 mmHg 25%
    12:00 +25°C° 0 mm 5 mps 734 mmHg 21%
    13:00 +27°C° 0 mm 5 mps 733 mmHg 16%
    14:00 +28°C° 0 mm 4 mps 733 mmHg 16%
    15:00 +28°C° 0 mm 4 mps 732 mmHg 15%
    16:00 +29°C° 0 mm 4 mps 732 mmHg 15%
    17:00 +28°C° 0 mm 4 mps 732 mmHg 16%
    18:00 +27°C° 0 mm 4 mps 731 mmHg 17%
    19:00 +26°C° 0 mm 4 mps 731 mmHg 18%
    20:00 +26°C° 0 mm 4 mps 731 mmHg 19%
    21:00 +25°C° 0 mm 5 mps 731 mmHg 20%
    22:00 +25°C° 0 mm 5 mps 731 mmHg 21%
    23:00 +23°C° 0 mm 5 mps 731 mmHg 22%
    Show more